Year,Month,Day,Hour,Minute,Value (Times are PST for insolation in W/m^2)
2015,04,23,00,00,0.00
2015,04,23,00,01,0.00
2015,04,23,00,02,0.00
2015,04,23,00,03,0.00
2015,04,23,00,04,0.00
2015,04,23,00,05,0.00
2015,04,23,00,06,0.00
2015,04,23,00,07,0.00
2015,04,23,00,08,0.00
2015,04,23,00,09,0.00
2015,04,23,00,10,0.00
2015,04,23,00,11,0.00
2015,04,23,00,12,0.00
2015,04,23,00,13,0.00
2015,04,23,00,14,0.00
2015,04,23,00,15,0.00
2015,04,23,00,16,0.00
2015,04,23,00,17,0.00
2015,04,23,00,18,0.00
2015,04,23,00,19,0.00
2015,04,23,00,20,0.00
2015,04,23,00,21,0.00
2015,04,23,00,22,0.00
2015,04,23,00,23,0.00
2015,04,23,00,24,0.00
2015,04,23,00,25,0.00
2015,04,23,00,26,0.00
2015,04,23,00,27,0.00
2015,04,23,00,28,0.00
2015,04,23,00,29,0.00
2015,04,23,00,30,0.00
2015,04,23,00,31,0.00
2015,04,23,00,32,0.00
2015,04,23,00,33,0.00
2015,04,23,00,34,0.00
2015,04,23,00,35,0.00
2015,04,23,00,36,0.00
2015,04,23,00,37,0.00
2015,04,23,00,38,0.00
2015,04,23,00,39,0.00
2015,04,23,00,40,0.00
2015,04,23,00,41,0.00
2015,04,23,00,42,0.00
2015,04,23,00,43,0.00
2015,04,23,00,44,0.00
2015,04,23,00,45,0.00
2015,04,23,00,46,0.00
2015,04,23,00,47,0.00
2015,04,23,00,48,0.00
2015,04,23,00,49,0.00
2015,04,23,00,50,0.00
2015,04,23,00,51,0.00
2015,04,23,00,52,0.00
2015,04,23,00,53,0.00
2015,04,23,00,54,0.00
2015,04,23,00,55,0.00
2015,04,23,00,56,0.00
2015,04,23,00,57,0.00
2015,04,23,00,58,0.00
2015,04,23,00,59,0.00
2015,04,23,01,00,0.00
2015,04,23,01,01,0.00
2015,04,23,01,02,0.00
2015,04,23,01,03,0.00
2015,04,23,01,04,0.00
2015,04,23,01,05,0.00
2015,04,23,01,06,0.00
2015,04,23,01,07,0.00
2015,04,23,01,08,0.00
2015,04,23,01,09,0.00
2015,04,23,01,10,0.00
2015,04,23,01,11,0.00
2015,04,23,01,12,0.00
2015,04,23,01,13,0.00
2015,04,23,01,14,0.00
2015,04,23,01,15,0.00
2015,04,23,01,16,0.00
2015,04,23,01,17,0.00
2015,04,23,01,18,0.00
2015,04,23,01,19,0.00
2015,04,23,01,20,0.00
2015,04,23,01,21,0.00
2015,04,23,01,22,0.00
2015,04,23,01,23,0.00
2015,04,23,01,24,0.00
2015,04,23,01,25,0.00
2015,04,23,01,26,0.00
2015,04,23,01,27,0.00
2015,04,23,01,28,0.00
2015,04,23,01,29,0.00
2015,04,23,01,30,0.00
2015,04,23,01,31,0.00
2015,04,23,01,32,0.00
2015,04,23,01,33,0.00
2015,04,23,01,34,0.00
2015,04,23,01,35,0.00
2015,04,23,01,36,0.00
2015,04,23,01,37,0.00
2015,04,23,01,38,0.00
2015,04,23,01,39,0.00
2015,04,23,01,40,0.00
2015,04,23,01,41,0.00
2015,04,23,01,42,0.00
2015,04,23,01,43,0.00
2015,04,23,01,44,0.00
2015,04,23,01,45,0.00
2015,04,23,01,46,0.00
2015,04,23,01,47,0.00
2015,04,23,01,48,0.00
2015,04,23,01,49,0.00
2015,04,23,01,50,0.00
2015,04,23,01,51,0.00
2015,04,23,01,52,0.00
2015,04,23,01,53,0.00
2015,04,23,01,54,0.00
2015,04,23,01,55,0.00
2015,04,23,01,56,0.00
2015,04,23,01,57,0.00
2015,04,23,01,58,0.00
2015,04,23,01,59,0.00
2015,04,23,02,00,0.00
2015,04,23,02,01,0.00
2015,04,23,02,02,0.00
2015,04,23,02,03,0.00
2015,04,23,02,04,0.00
2015,04,23,02,05,0.00
2015,04,23,02,06,0.00
2015,04,23,02,07,0.00
2015,04,23,02,08,0.00
2015,04,23,02,09,0.00
2015,04,23,02,10,0.00
2015,04,23,02,11,0.00
2015,04,23,02,12,0.00
2015,04,23,02,13,0.00
2015,04,23,02,14,0.00
2015,04,23,02,15,0.00
2015,04,23,02,16,0.00
2015,04,23,02,17,0.00
2015,04,23,02,18,0.00
2015,04,23,02,19,0.00
2015,04,23,02,20,0.00
2015,04,23,02,21,0.00
2015,04,23,02,22,0.00
2015,04,23,02,23,0.00
2015,04,23,02,24,0.00
2015,04,23,02,25,0.00
2015,04,23,02,26,0.00
2015,04,23,02,27,0.00
2015,04,23,02,28,0.00
2015,04,23,02,29,0.00
2015,04,23,02,30,0.00
2015,04,23,02,31,0.00
2015,04,23,02,32,0.00
2015,04,23,02,33,0.00
2015,04,23,02,34,0.00
2015,04,23,02,35,0.00
2015,04,23,02,36,0.00
2015,04,23,02,37,0.00
2015,04,23,02,38,0.00
2015,04,23,02,39,0.00
2015,04,23,02,40,0.00
2015,04,23,02,41,0.00
2015,04,23,02,42,0.00
2015,04,23,02,43,0.00
2015,04,23,02,44,0.00
2015,04,23,02,45,0.00
2015,04,23,02,46,0.00
2015,04,23,02,47,0.00
2015,04,23,02,48,0.00
2015,04,23,02,49,0.00
2015,04,23,02,50,0.00
2015,04,23,02,51,0.00
2015,04,23,02,52,0.00
2015,04,23,02,53,0.00
2015,04,23,02,54,0.00
2015,04,23,02,55,0.00
2015,04,23,02,56,0.00
2015,04,23,02,57,0.00
2015,04,23,02,58,0.00
2015,04,23,02,59,0.00
2015,04,23,03,00,0.00
2015,04,23,03,01,0.00
2015,04,23,03,02,0.00
2015,04,23,03,03,0.00
2015,04,23,03,04,0.00
2015,04,23,03,05,0.00
2015,04,23,03,06,0.00
2015,04,23,03,07,0.00
2015,04,23,03,08,0.00
2015,04,23,03,09,0.00
2015,04,23,03,10,0.00
2015,04,23,03,11,0.00
2015,04,23,03,12,0.00
2015,04,23,03,13,0.00
2015,04,23,03,14,0.00
2015,04,23,03,15,0.00
2015,04,23,03,16,0.00
2015,04,23,03,17,0.00
2015,04,23,03,18,0.00
2015,04,23,03,19,0.00
2015,04,23,03,20,0.00
2015,04,23,03,21,0.00
2015,04,23,03,22,0.00
2015,04,23,03,23,0.00
2015,04,23,03,24,0.00
2015,04,23,03,25,0.00
2015,04,23,03,26,0.00
2015,04,23,03,27,0.00
2015,04,23,03,28,0.00
2015,04,23,03,29,0.00
2015,04,23,03,30,0.00
2015,04,23,03,31,0.00
2015,04,23,03,32,0.00
2015,04,23,03,33,0.00
2015,04,23,03,34,0.00
2015,04,23,03,35,0.00
2015,04,23,03,36,0.00
2015,04,23,03,37,0.00
2015,04,23,03,38,0.00
2015,04,23,03,39,0.00
2015,04,23,03,40,0.00
2015,04,23,03,41,0.00
2015,04,23,03,42,0.00
2015,04,23,03,43,0.00
2015,04,23,03,44,0.00
2015,04,23,03,45,0.00
2015,04,23,03,46,0.00
2015,04,23,03,47,0.00
2015,04,23,03,48,0.00
2015,04,23,03,49,0.00
2015,04,23,03,50,0.00
2015,04,23,03,51,0.00
2015,04,23,03,52,0.00
2015,04,23,03,53,0.00
2015,04,23,03,54,0.00
2015,04,23,03,55,0.00
2015,04,23,03,56,0.00
2015,04,23,03,57,0.00
2015,04,23,03,58,0.00
2015,04,23,03,59,0.00
2015,04,23,04,00,0.00
2015,04,23,04,01,0.00
2015,04,23,04,02,0.00
2015,04,23,04,03,0.00
2015,04,23,04,04,0.00
2015,04,23,04,05,0.00
2015,04,23,04,06,0.00
2015,04,23,04,07,0.00
2015,04,23,04,08,0.00
2015,04,23,04,09,0.00
2015,04,23,04,10,0.00
2015,04,23,04,11,0.00
2015,04,23,04,12,0.00
2015,04,23,04,13,0.00
2015,04,23,04,14,0.00
2015,04,23,04,15,0.00
2015,04,23,04,16,0.00
2015,04,23,04,17,0.00
2015,04,23,04,18,0.00
2015,04,23,04,19,0.00
2015,04,23,04,20,0.00
2015,04,23,04,21,0.00
2015,04,23,04,22,0.00
2015,04,23,04,23,0.00
2015,04,23,04,24,0.00
2015,04,23,04,25,0.00
2015,04,23,04,26,0.00
2015,04,23,04,27,0.00
2015,04,23,04,28,0.00
2015,04,23,04,29,0.00
2015,04,23,04,30,0.00
2015,04,23,04,31,0.00
2015,04,23,04,32,0.00
2015,04,23,04,33,0.00
2015,04,23,04,34,0.00
2015,04,23,04,35,0.00
2015,04,23,04,36,0.00
2015,04,23,04,37,0.00
2015,04,23,04,38,0.00
2015,04,23,04,39,0.00
2015,04,23,04,40,0.00
2015,04,23,04,41,0.00
2015,04,23,04,42,0.00
2015,04,23,04,43,0.00
2015,04,23,04,44,0.00
2015,04,23,04,45,0.00
2015,04,23,04,46,0.00
2015,04,23,04,47,0.00
2015,04,23,04,48,0.00
2015,04,23,04,49,0.00
2015,04,23,04,50,0.00
2015,04,23,04,51,0.00
2015,04,23,04,52,0.00
2015,04,23,04,53,0.00
2015,04,23,04,54,0.00
2015,04,23,04,55,0.00
2015,04,23,04,56,0.00
2015,04,23,04,57,0.00
2015,04,23,04,58,0.00
2015,04,23,04,59,0.00
2015,04,23,05,00,0.00
2015,04,23,05,01,0.00
2015,04,23,05,02,0.00
2015,04,23,05,03,0.00
2015,04,23,05,04,0.00
2015,04,23,05,05,0.00
2015,04,23,05,06,0.00
2015,04,23,05,07,0.00
2015,04,23,05,08,0.00
2015,04,23,05,09,0.00
2015,04,23,05,10,0.00
2015,04,23,05,11,0.00
2015,04,23,05,12,0.00
2015,04,23,05,13,0.00
2015,04,23,05,14,0.00
2015,04,23,05,15,0.00
2015,04,23,05,16,0.00
2015,04,23,05,17,0.00
2015,04,23,05,18,0.00
2015,04,23,05,19,0.00
2015,04,23,05,20,0.00
2015,04,23,05,21,0.00
2015,04,23,05,22,0.00
2015,04,23,05,23,0.00
2015,04,23,05,24,0.00
2015,04,23,05,25,0.00
2015,04,23,05,26,0.00
2015,04,23,05,27,0.00
2015,04,23,05,28,0.00
2015,04,23,05,29,0.00
2015,04,23,05,30,0.00
2015,04,23,05,31,0.00
2015,04,23,05,32,0.00
2015,04,23,05,33,0.00
2015,04,23,05,34,0.00
2015,04,23,05,35,0.00
2015,04,23,05,36,0.00
2015,04,23,05,37,0.00
2015,04,23,05,38,0.00
2015,04,23,05,39,0.00
2015,04,23,05,40,0.00
2015,04,23,05,41,0.00
2015,04,23,05,42,0.00
2015,04,23,05,43,0.00
2015,04,23,05,44,0.00
2015,04,23,05,45,0.00
2015,04,23,05,46,0.00
2015,04,23,05,47,0.00
2015,04,23,05,48,0.00
2015,04,23,05,49,0.00
2015,04,23,05,50,0.00
2015,04,23,05,51,0.00
2015,04,23,05,52,0.00
2015,04,23,05,53,0.00
2015,04,23,05,54,0.00
2015,04,23,05,55,0.00
2015,04,23,05,56,0.00
2015,04,23,05,57,0.00
2015,04,23,05,58,0.00
2015,04,23,05,59,0.00
2015,04,23,06,00,0.00
2015,04,23,06,01,0.00
2015,04,23,06,02,0.00
2015,04,23,06,03,0.00
2015,04,23,06,04,0.00
2015,04,23,06,05,0.00
2015,04,23,06,06,0.00
2015,04,23,06,07,0.00
2015,04,23,06,08,0.00
2015,04,23,06,09,0.00
2015,04,23,06,10,0.00
2015,04,23,06,11,0.00
2015,04,23,06,12,0.00
2015,04,23,06,13,0.00
2015,04,23,06,14,0.00
2015,04,23,06,15,0.00
2015,04,23,06,16,0.00
2015,04,23,06,17,0.00
2015,04,23,06,18,0.00
2015,04,23,06,19,0.00
2015,04,23,06,20,0.00
2015,04,23,06,21,0.00
2015,04,23,06,22,0.00
2015,04,23,06,23,0.00
2015,04,23,06,24,0.00
2015,04,23,06,25,0.00
2015,04,23,06,26,0.00
2015,04,23,06,27,0.00
2015,04,23,06,28,0.00
2015,04,23,06,29,0.00
2015,04,23,06,30,0.00
2015,04,23,06,31,0.00
2015,04,23,06,32,3.70
2015,04,23,06,33,5.00
2015,04,23,06,34,5.00
2015,04,23,06,35,5.00
2015,04,23,06,36,5.50
2015,04,23,06,37,7.00
2015,04,23,06,38,7.00
2015,04,23,06,39,7.00
2015,04,23,06,40,7.00
2015,04,23,06,41,8.60
2015,04,23,06,42,9.00
2015,04,23,06,43,8.90
2015,04,23,06,44,7.00
2015,04,23,06,45,7.60
2015,04,23,06,46,9.00
2015,04,23,06,47,8.00
2015,04,23,06,48,5.70
2015,04,23,06,49,5.00
2015,04,23,06,50,5.00
2015,04,23,06,51,5.00
2015,04,23,06,52,7.20
2015,04,23,06,53,9.40
2015,04,23,06,54,11.30
2015,04,23,06,55,12.90
2015,04,23,06,56,14.00
2015,04,23,06,57,14.00
2015,04,23,06,58,14.00
2015,04,23,06,59,14.00
2015,04,23,07,00,14.00
2015,04,23,07,01,14.00
2015,04,23,07,02,14.50
2015,04,23,07,03,16.00
2015,04,23,07,04,17.00
2015,04,23,07,05,18.00
2015,04,23,07,06,18.70
2015,04,23,07,07,19.00
2015,04,23,07,08,19.00
2015,04,23,07,09,17.80
2015,04,23,07,10,16.00
2015,04,23,07,11,16.00
2015,04,23,07,12,15.10
2015,04,23,07,13,14.00
2015,04,23,07,14,14.00
2015,04,23,07,15,14.00
2015,04,23,07,16,14.00
2015,04,23,07,17,14.00
2015,04,23,07,18,13.70
2015,04,23,07,19,11.70
2015,04,23,07,20,10.30
2015,04,23,07,21,9.00
2015,04,23,07,22,10.10
2015,04,23,07,23,11.70
2015,04,23,07,24,13.60
2015,04,23,07,25,12.20
2015,04,23,07,26,12.20
2015,04,23,07,27,14.00
2015,04,23,07,28,14.00
2015,04,23,07,29,14.80
2015,04,23,07,30,17.60
2015,04,23,07,31,19.00
2015,04,23,07,32,19.00
2015,04,23,07,33,19.00
2015,04,23,07,34,18.10
2015,04,23,07,35,18.00
2015,04,23,07,36,18.00
2015,04,23,07,37,18.00
2015,04,23,07,38,21.60
2015,04,23,07,39,25.40
2015,04,23,07,40,21.00
2015,04,23,07,41,18.20
2015,04,23,07,42,18.00
2015,04,23,07,43,19.00
2015,04,23,07,44,19.40
2015,04,23,07,45,21.00
2015,04,23,07,46,20.20
2015,04,23,07,47,19.00
2015,04,23,07,48,18.40
2015,04,23,07,49,16.70
2015,04,23,07,50,16.00
2015,04,23,07,51,14.20
2015,04,23,07,52,14.20
2015,04,23,07,53,16.40
2015,04,23,07,54,18.00
2015,04,23,07,55,18.00
2015,04,23,07,56,18.00
2015,04,23,07,57,18.00
2015,04,23,07,58,16.60
2015,04,23,07,59,16.00
2015,04,23,08,00,18.00
2015,04,23,08,01,23.30
2015,04,23,08,02,25.00
2015,04,23,08,03,25.00
2015,04,23,08,04,25.40
2015,04,23,08,05,26.00
2015,04,23,08,06,26.00
2015,04,23,08,07,27.60
2015,04,23,08,08,29.80
2015,04,23,08,09,29.40
2015,04,23,08,10,24.10
2015,04,23,08,11,20.40
2015,04,23,08,12,18.60
2015,04,23,08,13,18.00
2015,04,23,08,14,16.80
2015,04,23,08,15,16.00
2015,04,23,08,16,16.00
2015,04,23,08,17,17.90
2015,04,23,08,18,19.20
2015,04,23,08,19,21.00
2015,04,23,08,20,21.00
2015,04,23,08,21,20.10
2015,04,23,08,22,19.00
2015,04,23,08,23,20.30
2015,04,23,08,24,24.90
2015,04,23,08,25,31.30
2015,04,23,08,26,33.10
2015,04,23,08,27,34.60
2015,04,23,08,28,34.80
2015,04,23,08,29,40.20
2015,04,23,08,30,41.00
2015,04,23,08,31,38.30
2015,04,23,08,32,35.70
2015,04,23,08,33,36.60
2015,04,23,08,34,41.40
2015,04,23,08,35,54.00
2015,04,23,08,36,62.00
2015,04,23,08,37,59.30
2015,04,23,08,38,50.40
2015,04,23,08,39,46.00
2015,04,23,08,40,46.00
2015,04,23,08,41,48.20
2015,04,23,08,42,49.00
2015,04,23,08,43,52.90
2015,04,23,08,44,59.80
2015,04,23,08,45,73.40
2015,04,23,08,46,80.60
2015,04,23,08,47,73.30
2015,04,23,08,48,70.00
2015,04,23,08,49,70.00
2015,04,23,08,50,66.10
2015,04,23,08,51,62.30
2015,04,23,08,52,60.40
2015,04,23,08,53,66.70
2015,04,23,08,54,74.00
2015,04,23,08,55,72.00
2015,04,23,08,56,70.60
2015,04,23,08,57,72.00
2015,04,23,08,58,57.90
2015,04,23,08,59,43.70
2015,04,23,09,00,39.30
2015,04,23,09,01,45.00
2015,04,23,09,02,53.00
2015,04,23,09,03,53.30
2015,04,23,09,04,50.40
2015,04,23,09,05,41.00
2015,04,23,09,06,32.60
2015,04,23,09,07,27.00
2015,04,23,09,08,25.10
2015,04,23,09,09,25.10
2015,04,23,09,10,25.80
2015,04,23,09,11,25.00
2015,04,23,09,12,24.20
2015,04,23,09,13,22.00
2015,04,23,09,14,22.10
2015,04,23,09,15,21.70
2015,04,23,09,16,21.00
2015,04,23,09,17,22.80
2015,04,23,09,18,26.40
2015,04,23,09,19,30.40
2015,04,23,09,20,32.30
2015,04,23,09,21,35.90
2015,04,23,09,22,43.60
2015,04,23,09,23,48.30
2015,04,23,09,24,50.50
2015,04,23,09,25,55.10
2015,04,23,09,26,51.40
2015,04,23,09,27,51.30
2015,04,23,09,28,52.00
2015,04,23,09,29,50.50
2015,04,23,09,30,54.40
2015,04,23,09,31,50.10
2015,04,23,09,32,43.30
2015,04,23,09,33,40.40
2015,04,23,09,34,43.60
2015,04,23,09,35,46.20
2015,04,23,09,36,39.80
2015,04,23,09,37,39.30
2015,04,23,09,38,40.00
2015,04,23,09,39,40.00
2015,04,23,09,40,38.10
2015,04,23,09,41,38.50
2015,04,23,09,42,43.10
2015,04,23,09,43,39.30
2015,04,23,09,44,33.60
2015,04,23,09,45,37.80
2015,04,23,09,46,40.70
2015,04,23,09,47,41.10
2015,04,23,09,48,38.30
2015,04,23,09,49,37.00
2015,04,23,09,50,40.90
2015,04,23,09,51,43.80
2015,04,23,09,52,44.00
2015,04,23,09,53,44.00
2015,04,23,09,54,44.00
2015,04,23,09,55,45.10
2015,04,23,09,56,48.00
2015,04,23,09,57,47.80
2015,04,23,09,58,49.80
2015,04,23,09,59,52.60
2015,04,23,10,00,43.20
2015,04,23,10,01,40.70
2015,04,23,10,02,46.20
2015,04,23,10,03,46.70
2015,04,23,10,04,46.00
2015,04,23,10,05,54.60
2015,04,23,10,06,58.20
2015,04,23,10,07,48.60
2015,04,23,10,08,46.90
2015,04,23,10,09,60.90
2015,04,23,10,10,63.00
2015,04,23,10,11,61.70
2015,04,23,10,12,56.50
2015,04,23,10,13,51.60
2015,04,23,10,14,47.30
2015,04,23,10,15,41.30
2015,04,23,10,16,45.20
2015,04,23,10,17,47.00
2015,04,23,10,18,64.80
2015,04,23,10,19,65.60
2015,04,23,10,20,82.30
2015,04,23,10,21,93.00
2015,04,23,10,22,79.60
2015,04,23,10,23,65.10
2015,04,23,10,24,56.40
2015,04,23,10,25,49.90
2015,04,23,10,26,46.20
2015,04,23,10,27,44.80
2015,04,23,10,28,34.60
2015,04,23,10,29,39.00
2015,04,23,10,30,52.30
2015,04,23,10,31,50.20
2015,04,23,10,32,39.40
2015,04,23,10,33,35.00
2015,04,23,10,34,39.30
2015,04,23,10,35,43.50
2015,04,23,10,36,37.90
2015,04,23,10,37,32.10
2015,04,23,10,38,28.40
2015,04,23,10,39,32.30
2015,04,23,10,40,42.00
2015,04,23,10,41,46.10
2015,04,23,10,42,41.50
2015,04,23,10,43,45.50
2015,04,23,10,44,42.20
2015,04,23,10,45,44.70
2015,04,23,10,46,46.00
2015,04,23,10,47,45.20
2015,04,23,10,48,52.70
2015,04,23,10,49,68.10
2015,04,23,10,50,75.50
2015,04,23,10,51,74.30
2015,04,23,10,52,70.10
2015,04,23,10,53,67.70
2015,04,23,10,54,61.10
2015,04,23,10,55,62.00
2015,04,23,10,56,78.90
2015,04,23,10,57,90.00
2015,04,23,10,58,87.30
2015,04,23,10,59,84.40
2015,04,23,11,00,92.00
2015,04,23,11,01,115.30
2015,04,23,11,02,135.50
2015,04,23,11,03,144.10
2015,04,23,11,04,141.30
2015,04,23,11,05,118.50
2015,04,23,11,06,97.50
2015,04,23,11,07,91.00
2015,04,23,11,08,73.10
2015,04,23,11,09,68.00
2015,04,23,11,10,89.30
2015,04,23,11,11,81.80
2015,04,23,11,12,74.70
2015,04,23,11,13,76.40
2015,04,23,11,14,77.00
2015,04,23,11,15,68.20
2015,04,23,11,16,68.20
2015,04,23,11,17,81.10
2015,04,23,11,18,92.40
2015,04,23,11,19,90.60
2015,04,23,11,20,96.30
2015,04,23,11,21,96.60
2015,04,23,11,22,85.80
2015,04,23,11,23,86.90
2015,04,23,11,24,86.00
2015,04,23,11,25,91.70
2015,04,23,11,26,99.50
2015,04,23,11,27,89.00
2015,04,23,11,28,77.10
2015,04,23,11,29,82.70
2015,04,23,11,30,86.00
2015,04,23,11,31,86.00
2015,04,23,11,32,82.90
2015,04,23,11,33,78.10
2015,04,23,11,34,67.20
2015,04,23,11,35,62.30
2015,04,23,11,36,62.30
2015,04,23,11,37,54.90
2015,04,23,11,38,46.00
2015,04,23,11,39,46.00
2015,04,23,11,40,47.70
2015,04,23,11,41,44.30
2015,04,23,11,42,38.10
2015,04,23,11,43,43.20
2015,04,23,11,44,48.40
2015,04,23,11,45,58.90
2015,04,23,11,46,53.70
2015,04,23,11,47,53.00
2015,04,23,11,48,49.60
2015,04,23,11,49,42.40
2015,04,23,11,50,44.90
2015,04,23,11,51,52.70
2015,04,23,11,52,62.30
2015,04,23,11,53,58.40
2015,04,23,11,54,62.00
2015,04,23,11,55,60.60
2015,04,23,11,56,60.90
2015,04,23,11,57,67.10
2015,04,23,11,58,75.30
2015,04,23,11,59,87.10
2015,04,23,12,00,96.00
2015,04,23,12,01,76.00
2015,04,23,12,02,62.00
2015,04,23,12,03,53.10
2015,04,23,12,04,68.30
2015,04,23,12,05,74.00
2015,04,23,12,06,66.90
2015,04,23,12,07,69.00
2015,04,23,12,08,75.30
2015,04,23,12,09,53.00
2015,04,23,12,10,54.80
2015,04,23,12,11,63.00
2015,04,23,12,12,49.90
2015,04,23,12,13,40.00
2015,04,23,12,14,40.00
2015,04,23,12,15,40.00
2015,04,23,12,16,45.20
2015,04,23,12,17,44.40
2015,04,23,12,18,54.10
2015,04,23,12,19,59.10
2015,04,23,12,20,54.90
2015,04,23,12,21,57.30
2015,04,23,12,22,65.30
2015,04,23,12,23,77.00
2015,04,23,12,24,95.70
2015,04,23,12,25,99.60
2015,04,23,12,26,87.30
2015,04,23,12,27,94.90
2015,04,23,12,28,95.00
2015,04,23,12,29,101.30
2015,04,23,12,30,102.30
2015,04,23,12,31,143.10
2015,04,23,12,32,178.60
2015,04,23,12,33,183.00
2015,04,23,12,34,148.80
2015,04,23,12,35,140.50
2015,04,23,12,36,126.00
2015,04,23,12,37,118.40
2015,04,23,12,38,109.20
2015,04,23,12,39,104.00
2015,04,23,12,40,136.50
2015,04,23,12,41,146.30
2015,04,23,12,42,133.30
2015,04,23,12,43,118.40
2015,04,23,12,44,126.40
2015,04,23,12,45,197.00
2015,04,23,12,46,205.90
2015,04,23,12,47,231.10
2015,04,23,12,48,226.10
2015,04,23,12,49,205.00
2015,04,23,12,50,195.60
2015,04,23,12,51,253.20
2015,04,23,12,52,265.20
2015,04,23,12,53,306.00
2015,04,23,12,54,284.40
2015,04,23,12,55,271.80
2015,04,23,12,56,285.10
2015,04,23,12,57,281.00
2015,04,23,12,58,281.00
2015,04,23,12,59,265.40
2015,04,23,13,00,332.40
2015,04,23,13,01,331.30
2015,04,23,13,02,343.90
2015,04,23,13,03,301.70
2015,04,23,13,04,312.50
2015,04,23,13,05,348.20
2015,04,23,13,06,371.70
2015,04,23,13,07,422.60
2015,04,23,13,08,428.80
2015,04,23,13,09,440.60
2015,04,23,13,10,443.00
2015,04,23,13,11,430.20
2015,04,23,13,12,378.70
2015,04,23,13,13,387.40
2015,04,23,13,14,378.20
2015,04,23,13,15,341.60
2015,04,23,13,16,357.30
2015,04,23,13,17,378.70
2015,04,23,13,18,316.60
2015,04,23,13,19,229.00
2015,04,23,13,20,217.20
2015,04,23,13,21,186.00
2015,04,23,13,22,216.20
2015,04,23,13,23,220.90
2015,04,23,13,24,198.90
2015,04,23,13,25,181.90
2015,04,23,13,26,153.40
2015,04,23,13,27,146.90
2015,04,23,13,28,121.40
2015,04,23,13,29,126.60
2015,04,23,13,30,141.90
2015,04,23,13,31,176.60
2015,04,23,13,32,208.50
2015,04,23,13,33,198.20
2015,04,23,13,34,237.90
2015,04,23,13,35,316.80
2015,04,23,13,36,365.10
2015,04,23,13,37,339.30
2015,04,23,13,38,287.30
2015,04,23,13,39,281.60
2015,04,23,13,40,311.00
2015,04,23,13,41,337.40
2015,04,23,13,42,353.00
2015,04,23,13,43,353.00
2015,04,23,13,44,425.00
2015,04,23,13,45,352.00
2015,04,23,13,46,379.70
2015,04,23,13,47,436.70
2015,04,23,13,48,399.10
2015,04,23,13,49,379.70
2015,04,23,13,50,332.30
2015,04,23,13,51,320.00
2015,04,23,13,52,373.30
2015,04,23,13,53,380.00
2015,04,23,13,54,359.60
2015,04,23,13,55,280.20
2015,04,23,13,56,285.20
2015,04,23,13,57,252.20
2015,04,23,13,58,258.10
2015,04,23,13,59,305.20
2015,04,23,14,00,327.40
2015,04,23,14,01,265.10
2015,04,23,14,02,202.70
2015,04,23,14,03,198.40
2015,04,23,14,04,234.00
2015,04,23,14,05,272.40
2015,04,23,14,06,311.90
2015,04,23,14,07,271.00
2015,04,23,14,08,202.90
2015,04,23,14,09,161.30
2015,04,23,14,10,142.50
2015,04,23,14,11,142.00
2015,04,23,14,12,142.00
2015,04,23,14,13,130.50
2015,04,23,14,14,117.70
2015,04,23,14,15,130.90
2015,04,23,14,16,142.70
2015,04,23,14,17,172.90
2015,04,23,14,18,204.00
2015,04,23,14,19,223.20
2015,04,23,14,20,241.00
2015,04,23,14,21,241.00
2015,04,23,14,22,230.80
2015,04,23,14,23,236.20
2015,04,23,14,24,248.10
2015,04,23,14,25,241.80
2015,04,23,14,26,280.90
2015,04,23,14,27,267.90
2015,04,23,14,28,246.00
2015,04,23,14,29,244.20
2015,04,23,14,30,244.90
2015,04,23,14,31,267.00
2015,04,23,14,32,277.10
2015,04,23,14,33,256.70
2015,04,23,14,34,248.00
2015,04,23,14,35,221.30
2015,04,23,14,36,226.20
2015,04,23,14,37,240.70
2015,04,23,14,38,262.10
2015,04,23,14,39,271.90
2015,04,23,14,40,252.50
2015,04,23,14,41,219.00
2015,04,23,14,42,194.10
2015,04,23,14,43,197.30
2015,04,23,14,44,205.70
2015,04,23,14,45,265.00
2015,04,23,14,46,312.90
2015,04,23,14,47,376.00
2015,04,23,14,48,388.40
2015,04,23,14,49,404.00
2015,04,23,14,50,297.00
2015,04,23,14,51,225.90
2015,04,23,14,52,252.00
2015,04,23,14,53,331.10
2015,04,23,14,54,334.00
2015,04,23,14,55,334.00
2015,04,23,14,56,334.00
2015,04,23,14,57,283.90
2015,04,23,14,58,237.70
2015,04,23,14,59,243.00
2015,04,23,15,00,394.60
2015,04,23,15,01,429.00
2015,04,23,15,02,429.00
2015,04,23,15,03,366.60
2015,04,23,15,04,146.20
2015,04,23,15,05,126.50
2015,04,23,15,06,97.30
2015,04,23,15,07,91.00
2015,04,23,15,08,97.70
2015,04,23,15,09,104.10
2015,04,23,15,10,105.00
2015,04,23,15,11,103.80
2015,04,23,15,12,97.00
2015,04,23,15,13,97.00
2015,04,23,15,14,94.20
2015,04,23,15,15,91.00
2015,04,23,15,16,89.00
2015,04,23,15,17,86.40
2015,04,23,15,18,84.30
2015,04,23,15,19,80.60
2015,04,23,15,20,73.10
2015,04,23,15,21,67.20
2015,04,23,15,22,62.60
2015,04,23,15,23,62.00
2015,04,23,15,24,62.00
2015,04,23,15,25,62.00
2015,04,23,15,26,58.80
2015,04,23,15,27,54.40
2015,04,23,15,28,50.80
2015,04,23,15,29,49.00
2015,04,23,15,30,49.00
2015,04,23,15,31,49.00
2015,04,23,15,32,51.10
2015,04,23,15,33,53.00
2015,04,23,15,34,56.70
2015,04,23,15,35,62.30
2015,04,23,15,36,66.90
2015,04,23,15,37,67.00
2015,04,23,15,38,67.00
2015,04,23,15,39,67.00
2015,04,23,15,40,67.00
2015,04,23,15,41,68.20
2015,04,23,15,42,69.00
2015,04,23,15,43,69.80
2015,04,23,15,44,71.80
2015,04,23,15,45,74.00
2015,04,23,15,46,74.70
2015,04,23,15,47,78.30
2015,04,23,15,48,83.10
2015,04,23,15,49,88.10
2015,04,23,15,50,87.50
2015,04,23,15,51,76.10
2015,04,23,15,52,69.60
2015,04,23,15,53,67.00
2015,04,23,15,54,63.60
2015,04,23,15,55,65.70
2015,04,23,15,56,63.90
2015,04,23,15,57,62.70
2015,04,23,15,58,61.90
2015,04,23,15,59,65.00
2015,04,23,16,00,111.70
2015,04,23,16,01,145.40
2015,04,23,16,02,175.60
2015,04,23,16,03,192.40
2015,04,23,16,04,179.50
2015,04,23,16,05,174.40
2015,04,23,16,06,172.00
2015,04,23,16,07,173.20
2015,04,23,16,08,169.10
2015,04,23,16,09,171.00
2015,04,23,16,10,172.00
2015,04,23,16,11,171.60
2015,04,23,16,12,176.70
2015,04,23,16,13,179.00
2015,04,23,16,14,177.70
2015,04,23,16,15,171.00
2015,04,23,16,16,161.00
2015,04,23,16,17,151.00
2015,04,23,16,18,138.40
2015,04,23,16,19,135.90
2015,04,23,16,20,107.00
2015,04,23,16,21,106.20
2015,04,23,16,22,101.80
2015,04,23,16,23,94.60
2015,04,23,16,24,83.90
2015,04,23,16,25,70.60
2015,04,23,16,26,58.00
2015,04,23,16,27,49.50
2015,04,23,16,28,43.60
2015,04,23,16,29,39.30
2015,04,23,16,30,35.80
2015,04,23,16,31,31.80
2015,04,23,16,32,27.90
2015,04,23,16,33,24.10
2015,04,23,16,34,20.00
2015,04,23,16,35,16.40
2015,04,23,16,36,12.10
2015,04,23,16,37,10.70
2015,04,23,16,38,8.50
2015,04,23,16,39,7.00
2015,04,23,16,40,7.00
2015,04,23,16,41,8.10
2015,04,23,16,42,10.30
2015,04,23,16,43,11.80
2015,04,23,16,44,15.60
2015,04,23,16,45,19.00
2015,04,23,16,46,21.40
2015,04,23,16,47,23.00
2015,04,23,16,48,23.00
2015,04,23,16,49,24.00
2015,04,23,16,50,25.00
2015,04,23,16,51,25.00
2015,04,23,16,52,25.00
2015,04,23,16,53,25.20
2015,04,23,16,54,30.20
2015,04,23,16,55,32.20
2015,04,23,16,56,33.00
2015,04,23,16,57,33.90
2015,04,23,16,58,35.00
2015,04,23,16,59,35.00
2015,04,23,17,00,36.50
2015,04,23,17,01,38.70
2015,04,23,17,02,40.10
2015,04,23,17,03,42.40
2015,04,23,17,04,44.80
2015,04,23,17,05,47.00
2015,04,23,17,06,51.20
2015,04,23,17,07,59.90
2015,04,23,17,08,67.70
2015,04,23,17,09,80.90
2015,04,23,17,10,109.80
2015,04,23,17,11,140.90
2015,04,23,17,12,180.90
2015,04,23,17,13,263.70
2015,04,23,17,14,294.00
2015,04,23,17,15,390.50
2015,04,23,17,16,499.40
2015,04,23,17,17,505.20
2015,04,23,17,18,539.00
2015,04,23,17,19,561.80
2015,04,23,17,20,562.10
2015,04,23,17,21,558.00
2015,04,23,17,22,562.00
2015,04,23,17,23,564.90
2015,04,23,17,24,566.00
2015,04,23,17,25,568.50
2015,04,23,17,26,573.70
2015,04,23,17,27,563.10
2015,04,23,17,28,561.00